Elizabeth City, NC

7:59 AM EDT on June 27, 2017 (GMT -0400)
Elizabeth City Cgas-Regional

Weather History for KECG - September, 2012

Change the Weather History Date:

Thursday, September 6, 2012

  Actual Average Record
Temperature  
Mean Temperature 85 °F 75 °F  
Max Temperature 93 °F 84 °F 98 °F (1954)
Min Temperature 76 °F 66 °F 53 °F (1967)
Degree Days  
Heating Degree Days 0 0  
Month to date heating degree days 0 0  
Since 1 July heating degree days 0 0  
Cooling Degree Days 20 10  
Month to date cooling degree days 118 62  
Year to date cooling degree days 1954 1358  
Growing Degree Days 33 (Base 50)    
Moisture  
Dew Point 73 °F    
Average Humidity 71    
Maximum Humidity 85    
Minimum Humidity 56    
Precipitation  
Precipitation 0.39 in 0.13 in 2.60 in (1968)
Month to date precipitation 0.74 0.83  
Year to date precipitation 37.23 34.79  
Snow  
Snow 0.00 in - 0.00 in (2002)
Month to date snowfall 0.0  
Since 1 July snowfall 0.0  
Snow Depth 0.00 in    
Sea Level Pressure  
Sea Level Pressure 29.91 in    
Wind  
Wind Speed 10 mph (WSW)    
Max Wind Speed 22 mph    
Max Gust Speed 25 mph    
Visibility 9 miles    
Events Rain    
T = Trace of Precipitation, MM = Missing Value Source: NWS Daily Summary

Daily Weather History Graph

Daily Weather History Graph

Search for Another Location

Airport or City:

Trip Planner

Search our weather history database for the weather conditions in past years. The results will help you decide how hot, cold, wet, or windy it might be!

Date:

Astronomy

Sep. 06, 2012 Rise Set
Actual Time 6:40 AM EDT 7:24 PM EDT
Civil Twilight 6:14 AM EDT 7:50 PM EDT
Nautical Twilight 5:43 AM EDT 8:21 PM EDT
Astronomical Twilight 5:11 AM EDT 8:52 PM EDT
Moon 10:45 PM EDT (9/6) 12:25 PM EDT (9/6)
Length of Visible Light 13h 36m
Length of Day
12h 44m
Waning Gibbous, 67% of the Moon is Illuminated
Sep 6
Waning Gibbous
Sep 8
Last Quarter
Sep 15
New
Sep 22
First Quarter
Sep 29
Full

Hourly Weather History & Observations

Time (EDT) Temp. Heat Index Dew Point Humidity Pressure Visibility Wind Dir Wind Speed Gust Speed Precip Events Conditions
12:54 AM 81.0 °F 85.2 °F 72.0 °F 74% 29.91 in 10.0 mi SSW 12.7 mph - N/A   Clear
1:54 AM 80.1 °F 83.8 °F 72.0 °F 76% 29.91 in 10.0 mi SSW 11.5 mph - N/A   Clear
2:54 AM 79.0 °F - 72.0 °F 79% 29.91 in 10.0 mi SSW 9.2 mph - N/A   Clear
3:54 AM 79.0 °F - 73.0 °F 82% 29.91 in 10.0 mi SSW 9.2 mph - N/A   Clear
4:54 AM 79.0 °F - 73.0 °F 82% 29.91 in 10.0 mi SSW 10.4 mph - N/A   Clear
5:54 AM 78.1 °F - 73.0 °F 84% 29.90 in 10.0 mi SSW 8.1 mph - N/A   Clear
6:54 AM 78.1 °F - 73.0 °F 84% 29.91 in 10.0 mi SSW 9.2 mph - N/A   Clear
7:54 AM 80.1 °F 84.5 °F 73.9 °F 81% 29.93 in 10.0 mi SSW 9.2 mph - N/A   Clear
8:54 AM 82.0 °F 87.9 °F 73.9 °F 76% 29.93 in 10.0 mi SSW 11.5 mph - N/A   Clear
9:54 AM 86.0 °F 93.8 °F 73.9 °F 67% 29.94 in 10.0 mi SW 12.7 mph - N/A   Clear
10:54 AM 88.0 °F 97.5 °F 75.0 °F 65% 29.94 in 10.0 mi SW 9.2 mph - N/A   Clear
11:54 AM 89.1 °F 99.1 °F 75.0 °F 63% 29.91 in 10.0 mi SW 13.8 mph 20.7 mph N/A   Clear
12:54 PM 89.1 °F 99.1 °F 75.0 °F 63% 29.91 in 10.0 mi SSW 10.4 mph - N/A   Scattered Clouds
1:54 PM 91.9 °F 101.3 °F 73.9 °F 55% 29.89 in 10.0 mi SW 10.4 mph - N/A   Scattered Clouds
2:54 PM 90.0 °F 96.9 °F 72.0 °F 55% 29.88 in 10.0 mi SW 12.7 mph - N/A   Mostly Cloudy
3:54 PM 82.9 °F 87.5 °F 71.1 °F 67% 29.87 in 10.0 mi North 16.1 mph 24.2 mph 0.00 in   Mostly Cloudy
4:01 PM 82.4 °F 87.2 °F 71.6 °F 70% 29.87 in 10.0 mi North 16.1 mph 21.9 mph N/A   Overcast
4:43 PM 78.8 °F - 71.6 °F 78% 29.91 in 2.0 mi NW 13.8 mph - 0.07 in   Haze
4:50 PM 77.0 °F - 71.6 °F 83% 29.92 in 1.0 mi NW 10.4 mph 19.6 mph 0.15 in Rain Heavy Rain
4:54 PM 77.0 °F - 72.0 °F 84% 29.92 in 1.2 mi NNW 16.1 mph 19.6 mph 0.20 in Rain Heavy Rain
5:01 PM 77.0 °F - 71.6 °F 83% 29.92 in 1.0 mi NNW 12.7 mph - 0.12 in Rain Heavy Rain
5:12 PM 77.0 °F - 71.6 °F 83% 29.92 in 3.0 mi North 4.6 mph - 0.17 in Rain Rain
5:44 PM 78.8 °F - 71.6 °F 78% 29.90 in 10.0 mi NE 15.0 mph - 0.18 in Rain Light Rain
5:54 PM 78.1 °F - 72.0 °F 81% 29.91 in 10.0 mi NNE 11.5 mph - 0.18 in   Mostly Cloudy
6:54 PM 77.0 °F - 72.0 °F 84% 29.89 in 10.0 mi NE 10.4 mph - N/A   Mostly Cloudy
7:47 PM 77.0 °F - 71.6 °F 83% 29.90 in 10.0 mi East 4.6 mph - N/A   Mostly Cloudy
7:54 PM 77.0 °F - 72.0 °F 84% 29.90 in 10.0 mi SE 5.8 mph - 0.00 in Rain Light Rain
8:54 PM 75.9 °F - 71.1 °F 85% 29.92 in 10.0 mi West 3.5 mph - 0.00 in   Clear
9:54 PM 77.0 °F - 72.0 °F 84% 29.92 in 10.0 mi South 5.8 mph - 0.01 in   Clear
10:54 PM 77.0 °F - 72.0 °F 84% 29.92 in 10.0 mi West 3.5 mph - 0.00 in   Mostly Cloudy
11:14 PM 77.0 °F - 73.4 °F 89% 29.92 in 10.0 mi South 4.6 mph - N/A   Mostly Cloudy
11:54 PM 77.0 °F - 72.0 °F 84% 29.92 in 10.0 mi West 3.5 mph - N/A   Overcast